Regional Weather Roundup
Issued by NWS

Home | Current Version | Previous Version | Text Only | Print | Product List | Glossary Off
Versions: 1 2 3 4 5 6 7 8 9 10 11 12 13 14 15 16 17 18 19 20 21 22 23 24 25 26 27 28 29 30 31 32 33 34 35 36 37 38 39 40 41 42 43 44 45 46 47 48 49 50

000
ASUS43 KBIS 171502
RWRND

NORTH DAKOTA REGIONAL WEATHER ROUNDUP
NATIONAL WEATHER SERVICE BISMARCK ND
1000 AM CDT THU AUG 17 2017

NOTE: "FAIR" INDICATES FEW OR NO CLOUDS BELOW 12,000 FEET WITH NO
SIGNIFICANT WEATHER AND/OR OBSTRUCTIONS TO VISIBILITY.


NDZ001>003-009>011-017-171600-
NORTHWEST NORTH DAKOTA

CITY           SKY/WX    TMP DP  RH WIND       PRES   REMARKS
WILLISTON      SUNNY     70  54  56 SW6       29.84R
MINOT          SUNNY     76  55  48 S8        29.86R
MINOT AFB      SUNNY     74  54  49 S8        29.86R
$$

NDZ018>021-031>035-040>046-171600-
SOUTHWEST NORTH DAKOTA

CITY           SKY/WX    TMP DP  RH WIND       PRES   REMARKS
BISMARCK       SUNNY     67  58  72 CALM      29.91S
DICKINSON      SUNNY     69  52  54 S14       29.87S
GARRISON         N/A     67  57  70 S9        29.88S
HETTINGER ARPT SUNNY     69  51  52 SE10      29.92S
$$

NDZ004>008-012>016-024-026-027-054-171600-
NORTHEAST NORTH DAKOTA

CITY           SKY/WX    TMP DP  RH WIND       PRES   REMARKS
GRAND FORKS    CLOUDY    64  64 100 N7        29.84S
GRND FRKS AFB  PTSUNNY   63  63 100 N6        29.85S
DEVILS LAKE    MOSUNNY   64  60  87 N3        29.88S
$$

NDZ022-023-025-028>030-036>039-047>053-171600-
SOUTHEAST NORTH DAKOTA

CITY           SKY/WX    TMP DP  RH WIND       PRES   REMARKS
FARGO          CLOUDY    66  61  84 N17G26    29.83R
JAMESTOWN      SUNNY     65  60  84 NW5       29.88R
$$




USA.gov is the U.S. government's official web portal to all federal, state and local government web resources and services.